Hourly Data Report for January 12, 2017

PORT ALBERNI (AUT)
BRITISH COLUMBIA

49°18'59.700" N
124°55'36.600" W
76.20 m
1036B06
71475
WQC

Download Data

Hourly Data (January 2017)
Hourly Data Report for January 12, 2017
TIME
LST
Temp Definition
°C
Dew Point Definition
°C
Rel Hum Definition
%
Precip. Amount Definition
mm

Wind Dir Definition
10's deg

Wind Spd Definition
km/h
Visibility Definition
km
Stn Press Definition
kPa
Hmdx Definition


Wind Chill Definition


Weather Definition


00:00 -9.2 LegendMM LegendMM 0.0 32 5   101.05   -12 LegendNANA
01:00 -10.1 LegendMM LegendMM 0.0 31 3   101.05   -12 LegendNANA
02:00 -9.9 LegendMM LegendMM 0.0 31 3   101.18   -12 LegendNANA
03:00 -9.0 LegendMM LegendMM 0.0 31 2   101.22   -10 LegendNANA
04:00 -7.8 LegendMM LegendMM 0.0 30 3   101.23   -9 LegendNANA
05:00 -6.6 LegendMM LegendMM 0.0 31 3   101.30   -8 LegendNANA
06:00 -6.7 LegendMM LegendMM 0.0 32 4   101.34   -9 LegendNANA
07:00 -6.9 LegendMM LegendMM 0.0 31 5   101.41   -9 LegendNANA
08:00 -6.5 LegendMM LegendMM 0.0 0 1   101.47   -7 LegendNANA
09:00 -6.6 LegendMM LegendMM 0.0 31 6   101.56   -10 LegendNANA
10:00 -6.5 LegendMM LegendMM 0.0 30 5   101.66   -9 LegendNANA
11:00 -5.7 LegendMM LegendMM 0.0 2 3   101.68   -7 LegendNANA
12:00 -5.3 LegendMM LegendMM 0.0 6 2   101.63   -6 LegendNANA
13:00 -5.0 LegendMM LegendMM 0.0 34 1   101.59   -5 LegendNANA
14:00 -4.5 LegendMM LegendMM 0.0 0 1   101.61   -5 LegendNANA
15:00 -4.0 LegendMM LegendMM 0.0 16 3   101.64   -5 LegendNANA
16:00 -4.1 LegendMM LegendMM 0.0 18 1   101.69   -5 LegendNANA
17:00 -4.3 LegendMM LegendMM 0.0 10 1   101.71   -5 LegendNANA
18:00 -4.5 LegendMM LegendMM 0.0 35 2   101.77   -5 LegendNANA
19:00 -4.5 LegendMM LegendMM 0.0 8 3   101.78   -6 LegendNANA
20:00 -4.5 LegendMM LegendMM 0.0 0 1   101.82   -5 LegendNANA
21:00 -4.6 LegendMM LegendMM 0.0 0 1   101.93   -5 LegendNANA
22:00 -4.6 LegendMM LegendMM 0.0 2 1   101.96   -5 LegendNANA
23:00 -5.1 LegendMM LegendMM 0.0 0 1   101.97   -6 LegendNANA

Notes on Data Quality.

Legend

  • E = Estimated
  • M = Missing
  • NA = Not Available*
  • [empty] = Indicates an unobserved value
Date modified: